Time,TemperatureF,DewpointF,PressureIn,WindDirection,WindDirectionDegrees,WindSpeedMPH,WindSpeedGustMPH,Humidity,HourlyPrecipIn,Conditions,Clouds,dailyrainin,SoftwareType,DateUTC
2013-01-01 00:01:00,68.9,66.5,29.88,South,184,5.0,7.0,92,0.00,,---,0.00,VWS V14.00,2013-01-01 06:01:00,
2013-01-01 00:06:00,69.1,66.7,29.88,SSW,194,7.0,10.0,92,0.00,,---,0.00,VWS V14.00,2013-01-01 06:06:00,
2013-01-01 00:11:00,69.2,66.8,29.88,SSW,196,8.0,8.0,92,0.00,,---,0.00,VWS V14.00,2013-01-01 06:11:00,
2013-01-01 00:16:00,69.3,66.9,29.88,SSW,196,7.0,7.0,92,0.00,,---,0.00,VWS V14.00,2013-01-01 06:16:00,
2013-01-01 00:21:00,69.3,66.9,29.88,SSW,196,5.0,7.0,92,0.00,,---,0.00,VWS V14.00,2013-01-01 06:21:00,
2013-01-01 00:26:00,69.2,66.8,29.88,SSW,196,3.0,5.0,92,0.00,,---,0.00,VWS V14.00,2013-01-01 06:26:00,
2013-01-01 00:31:00,69.1,66.7,29.87,SSW,196,4.0,6.0,92,0.00,,---,0.00,VWS V14.00,2013-01-01 06:31:00,
2013-01-01 00:36:00,69.0,66.6,29.87,SSW,196,8.0,8.0,92,0.00,,---,0.00,VWS V14.00,2013-01-01 06:36:00,
2013-01-01 00:41:00,69.0,66.6,29.87,SSW,196,3.0,4.0,92,0.00,,---,0.00,VWS V14.00,2013-01-01 06:41:00,
2013-01-01 00:46:00,69.0,66.9,29.87,SSW,196,3.0,6.0,93,0.00,,---,0.00,VWS V14.00,2013-01-01 06:46:00,
2013-01-01 00:51:00,69.0,66.9,29.87,SSW,196,6.0,7.0,93,0.00,,---,0.00,VWS V14.00,2013-01-01 06:51:00,
2013-01-01 00:56:00,69.1,67.0,29.87,SSW,196,7.0,8.0,93,0.00,,---,0.00,VWS V14.00,2013-01-01 06:56:00,
2013-01-01 01:01:00,69.2,67.1,29.87,SSW,196,5.0,5.0,93,0.00,,---,0.00,VWS V14.00,2013-01-01 07:01:00,
2013-01-01 01:06:00,69.1,67.0,29.86,SSW,196,3.0,6.0,93,0.00,,---,0.00,VWS V14.00,2013-01-01 07:06:00,
2013-01-01 01:11:00,69.2,67.1,29.86,SSW,196,7.0,8.0,93,0.00,,---,0.00,VWS V14.00,2013-01-01 07:11:00,
2013-01-01 01:16:00,69.2,67.1,29.86,SSW,196,6.0,7.0,93,0.00,,---,0.00,VWS V14.00,2013-01-01 07:16:00,
2013-01-01 01:21:00,69.2,67.1,29.86,SSW,196,7.0,9.0,93,0.00,,---,0.00,VWS V14.00,2013-01-01 07:21:00,
2013-01-01 01:26:00,69.1,67.0,29.86,SSW,196,5.0,10.0,93,0.00,,---,0.00,VWS V14.00,2013-01-01 07:26:00,
2013-01-01 01:31:00,69.1,67.0,29.86,SSW,196,8.0,11.0,93,0.00,,---,0.00,VWS V14.00,2013-01-01 07:31:00,
2013-01-01 01:36:00,69.1,67.0,29.86,South,190,8.0,11.0,93,0.00,,---,0.00,VWS V14.00,2013-01-01 07:36:00,
2013-01-01 01:41:00,69.2,67.1,29.85,South,185,7.0,10.0,93,0.00,,---,0.00,VWS V14.00,2013-01-01 07:41:00,
2013-01-01 01:46:00,69.2,67.1,29.85,South,182,9.0,11.0,93,0.00,,---,0.00,VWS V14.00,2013-01-01 07:46:00,
2013-01-01 01:51:00,69.1,67.0,29.84,South,176,8.0,12.0,93,0.00,,---,0.00,VWS V14.00,2013-01-01 07:51:00,
2013-01-01 01:56:00,69.1,67.0,29.84,South,171,12.0,12.0,93,0.00,,---,0.00,VWS V14.00,2013-01-01 07:56:00,
2013-01-01 02:01:00,69.1,67.0,29.84,South,172,13.0,13.0,93,0.00,,---,0.00,VWS V14.00,2013-01-01 08:01:00,
2013-01-01 02:06:00,69.1,67.0,29.84,South,175,13.0,13.0,93,0.00,,---,0.00,VWS V14.00,2013-01-01 08:06:00,
2013-01-01 02:11:00,69.2,67.1,29.84,South,180,7.0,11.0,93,0.00,,---,0.00,VWS V14.00,2013-01-01 08:11:00,
2013-01-01 02:16:00,69.4,67.3,29.85,South,186,12.0,15.0,93,0.00,,---,0.00,VWS V14.00,2013-01-01 08:16:00,
2013-01-01 02:21:00,69.3,67.2,29.85,South,184,11.0,15.0,93,0.00,,---,0.00,VWS V14.00,2013-01-01 08:21:00,
2013-01-01 02:26:00,69.3,67.2,29.83,South,173,16.0,16.0,93,0.00,,---,0.00,VWS V14.00,2013-01-01 08:26:00,
2013-01-01 02:31:00,69.3,67.2,29.82,South,169,9.0,14.0,93,0.00,,---,0.00,VWS V14.00,2013-01-01 08:31:00,
2013-01-01 02:36:00,69.3,67.2,29.82,SSE,161,10.0,11.0,93,0.00,,---,0.00,VWS V14.00,2013-01-01 08:36:00,
2013-01-01 02:41:00,69.4,67.3,29.82,South,170,12.0,13.0,93,0.00,,---,0.00,VWS V14.00,2013-01-01 08:41:00,
2013-01-01 02:46:00,69.4,67.3,29.82,South,169,15.0,16.0,93,0.00,,---,0.00,VWS V14.00,2013-01-01 08:46:00,
2013-01-01 02:51:00,69.6,67.5,29.82,SSE,166,14.0,14.0,93,0.00,,---,0.00,VWS V14.00,2013-01-01 08:51:00,
2013-01-01 02:56:00,69.5,67.4,29.82,SSE,166,10.0,12.0,93,0.00,,---,0.00,VWS V14.00,2013-01-01 08:56:00,
2013-01-01 03:01:00,69.4,67.3,29.82,South,175,15.0,15.0,93,0.00,,---,0.00,VWS V14.00,2013-01-01 09:01:00,
2013-01-01 03:06:00,69.5,67.4,29.81,South,174,12.0,15.0,93,0.00,,---,0.00,VWS V14.00,2013-01-01 09:06:00,
2013-01-01 03:11:00,69.5,67.4,29.81,South,179,13.0,13.0,93,0.00,,---,0.00,VWS V14.00,2013-01-01 09:11:00,
2013-01-01 03:16:00,69.6,67.2,29.81,South,182,11.0,12.0,92,0.00,,---,0.00,VWS V14.00,2013-01-01 09:16:00,
2013-01-01 03:21:00,69.8,67.4,29.80,South,169,9.0,13.0,92,0.00,,---,0.00,VWS V14.00,2013-01-01 09:21:00,
2013-01-01 03:26:00,69.7,67.3,29.80,South,173,13.0,13.0,92,0.00,,---,0.00,VWS V14.00,2013-01-01 09:26:00,
2013-01-01 03:31:00,69.8,67.4,29.81,South,178,12.0,12.0,92,0.00,,---,0.00,VWS V14.00,2013-01-01 09:31:00,
2013-01-01 03:36:00,69.8,67.4,29.80,South,173,11.0,17.0,92,0.00,,---,0.00,VWS V14.00,2013-01-01 09:36:00,
2013-01-01 03:41:00,69.8,67.4,29.80,South,177,8.0,14.0,92,0.00,,---,0.00,VWS V14.00,2013-01-01 09:41:00,
2013-01-01 03:46:00,69.9,67.5,29.80,South,169,13.0,18.0,92,0.00,,---,0.00,VWS V14.00,2013-01-01 09:46:00,
2013-01-01 03:51:00,70.2,67.8,29.81,SSW,202,8.0,12.0,92,0.00,,---,0.00,VWS V14.00,2013-01-01 09:51:00,
2013-01-01 03:56:00,70.3,67.6,29.82,SSW,210,8.0,12.0,91,0.00,,---,0.00,VWS V14.00,2013-01-01 09:56:00,
2013-01-01 04:01:00,70.2,67.4,29.82,SW,216,9.0,12.0,91,0.00,,---,0.00,VWS V14.00,2013-01-01 10:01:00,
2013-01-01 04:06:00,70.2,67.8,29.82,SW,219,10.0,10.0,92,0.00,,---,0.00,VWS V14.00,2013-01-01 10:06:00,
2013-01-01 04:11:00,70.1,67.7,29.81,SW,221,6.0,8.0,92,0.00,,---,0.00,VWS V14.00,2013-01-01 10:11:00,
2013-01-01 04:16:00,70.1,67.7,29.81,SSW,212,6.0,10.0,92,0.00,,---,0.00,VWS V14.00,2013-01-01 10:16:00,
2013-01-01 04:21:00,70.1,67.4,29.82,SSW,212,7.0,7.0,91,0.00,,---,0.00,VWS V14.00,2013-01-01 10:21:00,
2013-01-01 04:26:00,70.0,67.3,29.82,SSW,212,3.0,5.0,91,0.00,,---,0.00,VWS V14.00,2013-01-01 10:26:00,
2013-01-01 04:31:00,69.9,67.5,29.83,SW,219,8.0,10.0,92,0.00,,---,0.00,VWS V14.00,2013-01-01 10:31:00,
2013-01-01 04:36:00,69.7,67.3,29.83,SW,219,5.0,6.0,92,0.00,,---,0.00,VWS V14.00,2013-01-01 10:36:00,
2013-01-01 04:41:00,69.5,67.1,29.83,SW,218,0.0,0.0,92,0.00,,---,0.00,VWS V14.00,2013-01-01 10:41:00,
2013-01-01 04:46:00,69.4,67.0,29.83,SW,218,5.0,5.0,92,0.00,,---,0.00,VWS V14.00,2013-01-01 10:46:00,
2013-01-01 04:51:00,69.3,66.9,29.84,SW,219,2.0,6.0,92,0.00,,---,0.00,VWS V14.00,2013-01-01 10:51:00,
2013-01-01 04:56:00,69.2,66.8,29.84,SW,219,4.0,6.0,92,0.00,,---,0.00,VWS V14.00,2013-01-01 10:56:00,
2013-01-01 05:01:00,69.0,66.6,29.84,SW,218,0.0,4.0,92,0.00,,---,0.00,VWS V14.00,2013-01-01 11:01:00,
2013-01-01 05:06:00,68.9,66.5,29.84,SW,219,0.0,0.0,92,0.00,,---,0.00,VWS V14.00,2013-01-01 11:06:00,
2013-01-01 05:11:00,68.8,66.7,29.84,SW,219,7.0,7.0,93,0.00,,---,0.00,VWS V14.00,2013-01-01 11:11:00,
2013-01-01 05:16:00,68.7,66.6,29.84,SW,219,0.0,0.0,93,0.00,,---,0.00,VWS V14.00,2013-01-01 11:16:00,
2013-01-01 05:21:00,68.6,66.5,29.84,SW,219,0.0,0.0,93,0.00,,---,0.00,VWS V14.00,2013-01-01 11:21:00,
2013-01-01 05:26:00,68.6,66.5,29.85,SW,219,0.0,0.0,93,0.00,,---,0.00,VWS V14.00,2013-01-01 11:26:00,
2013-01-01 05:31:00,68.5,66.4,29.85,SW,218,0.0,0.0,93,0.00,,---,0.00,VWS V14.00,2013-01-01 11:31:00,
2013-01-01 05:36:00,68.4,66.3,29.85,SW,219,0.0,0.0,93,0.00,,---,0.00,VWS V14.00,2013-01-01 11:36:00,
2013-01-01 05:41:00,68.4,66.3,29.85,SW,219,0.0,0.0,93,0.00,,---,0.00,VWS V14.00,2013-01-01 11:41:00,
2013-01-01 05:46:00,68.3,66.2,29.85,SW,218,0.0,0.0,93,0.00,,---,0.00,VWS V14.00,2013-01-01 11:46:00,
2013-01-01 05:51:00,68.2,66.4,29.84,SW,218,0.0,0.0,94,0.00,,---,0.00,VWS V14.00,2013-01-01 11:51:00,
2013-01-01 05:56:00,68.2,66.4,29.84,SW,219,0.0,0.0,94,0.00,,---,0.00,VWS V14.00,2013-01-01 11:56:00,
2013-01-01 06:01:00,68.1,66.3,29.85,SW,219,0.0,0.0,94,0.00,,---,0.00,VWS V14.00,2013-01-01 12:01:00,
2013-01-01 06:06:00,68.1,66.3,29.85,SW,219,0.0,0.0,94,0.00,,---,0.00,VWS V14.00,2013-01-01 12:06:00,
2013-01-01 06:11:00,68.1,66.3,29.86,SW,219,0.0,0.0,94,0.00,,---,0.00,VWS V14.00,2013-01-01 12:11:00,
2013-01-01 06:16:00,68.0,66.2,29.86,SW,219,0.0,0.0,94,0.00,,---,0.00,VWS V14.00,2013-01-01 12:16:00,
2013-01-01 06:21:00,68.0,66.2,29.86,SW,219,0.0,0.0,94,0.00,,---,0.00,VWS V14.00,2013-01-01 12:21:00,
2013-01-01 06:26:00,68.0,66.2,29.86,SW,219,0.0,0.0,94,0.00,,---,0.00,VWS V14.00,2013-01-01 12:26:00,
2013-01-01 06:31:00,67.9,66.1,29.86,SW,219,0.0,0.0,94,0.00,,---,0.00,VWS V14.00,2013-01-01 12:31:00,
2013-01-01 06:36:00,67.9,66.1,29.86,SW,219,0.0,0.0,94,0.00,,---,0.00,VWS V14.00,2013-01-01 12:36:00,
2013-01-01 06:41:00,67.8,66.0,29.87,SW,219,0.0,0.0,94,0.00,,---,0.00,VWS V14.00,2013-01-01 12:41:00,
2013-01-01 06:46:00,67.7,65.9,29.87,SW,219,0.0,0.0,94,0.00,,---,0.00,VWS V14.00,2013-01-01 12:46:00,
2013-01-01 06:51:00,67.7,65.9,29.87,SW,219,0.0,0.0,94,0.00,,---,0.00,VWS V14.00,2013-01-01 12:51:00,
2013-01-01 06:56:00,67.7,65.9,29.87,SW,219,0.0,0.0,94,0.00,,---,0.00,VWS V14.00,2013-01-01 12:56:00,
2013-01-01 07:01:00,67.6,65.8,29.87,SW,219,0.0,0.0,94,0.00,,---,0.00,VWS V14.00,2013-01-01 13:01:00,
2013-01-01 07:06:00,67.6,65.8,29.88,SW,219,0.0,0.0,94,0.00,,---,0.00,VWS V14.00,2013-01-01 13:06:00,
2013-01-01 07:11:00,67.6,65.8,29.88,SW,219,0.0,0.0,94,0.00,,---,0.00,VWS V14.00,2013-01-01 13:11:00,
2013-01-01 07:16:00,67.5,65.7,29.89,SW,218,0.0,0.0,94,0.00,,---,0.00,VWS V14.00,2013-01-01 13:16:00,
2013-01-01 07:21:00,67.5,65.7,29.90,SW,219,0.0,0.0,94,0.00,,---,0.00,VWS V14.00,2013-01-01 13:21:00,
2013-01-01 07:26:00,67.5,65.7,29.90,SW,219,0.0,0.0,94,0.00,,---,0.00,VWS V14.00,2013-01-01 13:26:00,
2013-01-01 07:31:00,67.5,66.0,29.90,SW,219,0.0,0.0,95,0.00,,---,0.00,VWS V14.00,2013-01-01 13:31:00,
2013-01-01 07:36:00,67.5,66.0,29.89,SW,219,0.0,0.0,95,0.00,,---,0.00,VWS V14.00,2013-01-01 13:36:00,
2013-01-01 07:41:00,67.5,66.0,29.89,SW,218,0.0,0.0,95,0.00,,---,0.00,VWS V14.00,2013-01-01 13:41:00,
2013-01-01 07:46:00,67.4,65.6,29.89,SW,219,0.0,0.0,94,0.00,,---,0.00,VWS V14.00,2013-01-01 13:46:00,
2013-01-01 07:51:00,67.4,65.9,29.90,SW,219,0.0,0.0,95,0.00,,---,0.00,VWS V14.00,2013-01-01 13:51:00,
2013-01-01 07:56:00,67.3,65.8,29.90,SW,219,0.0,0.0,95,0.00,,---,0.00,VWS V14.00,2013-01-01 13:56:00,
2013-01-01 08:01:00,67.3,65.8,29.90,SW,219,0.0,0.0,95,0.00,,---,0.00,VWS V14.00,2013-01-01 14:01:00,
2013-01-01 08:06:00,67.4,65.9,29.91,West,261,6.0,10.0,95,0.00,,---,0.00,VWS V14.00,2013-01-01 14:06:00,
2013-01-01 08:11:00,66.0,63.9,29.92,NW,311,7.0,11.0,93,0.00,,---,0.00,VWS V14.00,2013-01-01 14:11:00,
2013-01-01 08:16:00,65.2,63.4,29.91,NNW,327,1.0,10.0,94,0.00,,---,0.00,VWS V14.00,2013-01-01 14:16:00,
2013-01-01 08:21:00,64.3,62.5,29.92,NNW,335,8.0,8.0,94,0.00,,---,0.00,VWS V14.00,2013-01-01 14:21:00,
2013-01-01 08:26:00,63.9,62.1,29.93,NNW,337,0.0,7.0,94,0.00,,---,0.00,VWS V14.00,2013-01-01 14:26:00,
2013-01-01 08:31:00,63.6,61.8,29.93,NNW,345,0.0,1.0,94,0.00,,---,0.00,VWS V14.00,2013-01-01 14:31:00,
2013-01-01 08:36:00,63.4,62.0,29.94,NNW,344,2.0,2.0,95,0.00,,---,0.00,VWS V14.00,2013-01-01 14:36:00,
2013-01-01 08:41:00,63.1,61.3,29.94,North,349,0.0,11.0,94,0.00,,---,0.00,VWS V14.00,2013-01-01 14:41:00,
2013-01-01 08:46:00,63.0,61.5,29.95,North,350,0.0,3.0,95,0.00,,---,0.00,VWS V14.00,2013-01-01 14:46:00,
2013-01-01 08:51:00,62.8,61.3,29.95,NNE,18,3.0,10.0,95,0.00,,---,0.00,VWS V14.00,2013-01-01 14:51:00,
2013-01-01 08:56:00,62.6,60.8,29.96,North,351,3.0,8.0,94,0.00,,---,0.00,VWS V14.00,2013-01-01 14:56:00,
2013-01-01 09:01:00,60.9,58.9,29.97,NNE,20,8.0,14.0,93,0.00,,---,0.00,VWS V14.00,2013-01-01 15:01:00,
2013-01-01 09:06:00,59.6,57.6,29.98,NNE,14,4.0,4.0,93,0.00,,---,0.00,VWS V14.00,2013-01-01 15:06:00,
2013-01-01 09:11:00,58.9,57.2,29.98,NNE,13,3.0,9.0,94,0.00,,---,0.00,VWS V14.00,2013-01-01 15:11:00,
2013-01-01 09:16:00,58.7,57.0,29.98,NNE,17,5.0,13.0,94,0.00,,---,0.00,VWS V14.00,2013-01-01 15:16:00,
2013-01-01 09:21:00,58.5,56.8,29.99,NNE,17,5.0,15.0,94,0.00,,---,0.00,VWS V14.00,2013-01-01 15:21:00,
2013-01-01 09:26:00,58.4,56.7,29.99,NNE,21,3.0,11.0,94,0.00,,---,0.00,VWS V14.00,2013-01-01 15:26:00,
2013-01-01 09:31:00,58.1,56.4,29.99,NNE,15,18.0,18.0,94,0.00,,---,0.00,VWS V14.00,2013-01-01 15:31:00,
2013-01-01 09:36:00,58.1,56.4,30.00,NNE,17,2.0,11.0,94,0.00,,---,0.00,VWS V14.00,2013-01-01 15:36:00,
2013-01-01 09:41:00,57.9,56.2,30.00,NNE,23,4.0,22.0,94,0.00,,---,0.00,VWS V14.00,2013-01-01 15:41:00,
2013-01-01 09:46:00,57.8,56.1,30.00,NNE,25,19.0,22.0,94,0.00,,---,0.00,VWS V14.00,2013-01-01 15:46:00,
2013-01-01 09:51:00,57.7,56.0,30.00,NNE,26,17.0,21.0,94,0.00,,---,0.00,VWS V14.00,2013-01-01 15:51:00,
2013-01-01 09:56:00,57.9,56.2,30.00,NNE,25,16.0,21.0,94,0.00,,---,0.00,VWS V14.00,2013-01-01 15:56:00,
2013-01-01 10:01:00,57.6,55.6,30.00,NNE,17,11.0,19.0,93,0.00,,---,0.00,VWS V14.00,2013-01-01 16:01:00,
2013-01-01 10:06:00,57.6,55.6,30.01,NNE,24,14.0,18.0,93,0.00,,---,0.00,VWS V14.00,2013-01-01 16:06:00,
2013-01-01 10:11:00,57.5,55.5,30.01,NNE,32,24.0,26.0,93,0.00,,---,0.00,VWS V14.00,2013-01-01 16:11:00,
2013-01-01 10:16:00,57.2,54.9,30.01,NNE,28,14.0,26.0,92,0.00,,---,0.00,VWS V14.00,2013-01-01 16:16:00,
2013-01-01 10:21:00,57.2,54.9,30.01,North,360,14.0,29.0,92,0.00,,---,0.00,VWS V14.00,2013-01-01 16:21:00,
2013-01-01 10:26:00,57.1,54.5,30.02,NNE,26,23.0,23.0,91,0.00,,---,0.00,VWS V14.00,2013-01-01 16:26:00,
2013-01-01 10:31:00,57.0,54.4,30.01,NNE,17,17.0,27.0,91,0.00,,---,0.00,VWS V14.00,2013-01-01 16:31:00,
2013-01-01 10:36:00,57.1,54.5,30.01,NNE,32,17.0,25.0,91,0.00,,---,0.00,VWS V14.00,2013-01-01 16:36:00,
2013-01-01 10:41:00,57.3,54.4,30.02,NNE,22,11.0,26.0,90,0.00,,---,0.00,VWS V14.00,2013-01-01 16:41:00,
2013-01-01 10:46:00,57.4,54.8,30.02,NNE,25,14.0,20.0,91,0.00,,---,0.00,VWS V14.00,2013-01-01 16:46:00,
2013-01-01 10:51:00,57.5,54.6,30.02,NNE,26,14.0,20.0,90,0.00,,---,0.00,VWS V14.00,2013-01-01 16:51:00,
2013-01-01 10:56:00,57.5,54.6,30.02,NNE,13,15.0,22.0,90,0.00,,---,0.00,VWS V14.00,2013-01-01 16:56:00,
2013-01-01 11:01:00,57.4,54.5,30.02,NNE,26,15.0,19.0,90,0.00,,---,0.00,VWS V14.00,2013-01-01 17:01:00,
2013-01-01 11:06:00,57.3,54.4,30.02,NNE,28,9.0,19.0,90,0.00,,---,0.00,VWS V14.00,2013-01-01 17:06:00,
2013-01-01 11:11:00,57.3,54.4,30.02,NE,41,17.0,19.0,90,0.00,,---,0.00,VWS V14.00,2013-01-01 17:11:00,
2013-01-01 11:16:00,57.4,54.5,30.02,NNE,23,15.0,19.0,90,0.00,,---,0.00,VWS V14.00,2013-01-01 17:16:00,
2013-01-01 11:21:00,57.4,54.5,30.02,NNE,33,17.0,17.0,90,0.00,,---,0.00,VWS V14.00,2013-01-01 17:21:00,
2013-01-01 11:26:00,57.5,54.6,30.02,NNE,22,9.0,12.0,90,0.00,,---,0.00,VWS V14.00,2013-01-01 17:26:00,
2013-01-01 11:31:00,57.4,54.5,30.02,NNE,18,6.0,16.0,90,0.00,,---,0.00,VWS V14.00,2013-01-01 17:31:00,
2013-01-01 11:36:00,57.2,54.3,30.02,NNE,18,6.0,15.0,90,0.00,,---,0.00,VWS V14.00,2013-01-01 17:36:00,
2013-01-01 11:41:00,57.0,54.1,30.02,NNE,26,13.0,20.0,90,0.00,,---,0.00,VWS V14.00,2013-01-01 17:41:00,
2013-01-01 11:46:00,57.1,54.2,30.02,NNE,32,17.0,21.0,90,0.00,,---,0.00,VWS V14.00,2013-01-01 17:46:00,
2013-01-01 11:51:00,57.3,54.4,30.01,North,10,5.0,8.0,90,0.00,,---,0.00,VWS V14.00,2013-01-01 17:51:00,
2013-01-01 11:56:00,57.4,54.5,30.01,NNE,28,20.0,20.0,90,0.00,,---,0.00,VWS V14.00,2013-01-01 17:56:00,
2013-01-01 12:01:00,57.3,54.4,30.02,NNE,21,13.0,17.0,90,0.00,,---,0.00,VWS V14.00,2013-01-01 18:01:00,
2013-01-01 12:06:00,57.1,53.9,30.02,NNE,16,8.0,17.0,89,0.00,,---,0.00,VWS V14.00,2013-01-01 18:06:00,
2013-01-01 12:11:00,57.2,54.0,30.02,NNE,14,6.0,10.0,89,0.00,,---,0.00,VWS V14.00,2013-01-01 18:11:00,
2013-01-01 12:16:00,57.1,53.9,30.02,NNE,22,4.0,12.0,89,0.00,,---,0.00,VWS V14.00,2013-01-01 18:16:00,
2013-01-01 12:21:00,57.0,53.8,30.02,NE,39,14.0,16.0,89,0.00,,---,0.00,VWS V14.00,2013-01-01 18:21:00,
2013-01-01 12:26:00,57.2,54.3,30.02,NNE,15,0.0,0.0,90,0.00,,---,0.00,VWS V14.00,2013-01-01 18:26:00,
2013-01-01 12:31:00,57.2,54.0,30.02,NNE,12,9.0,10.0,89,0.00,,---,0.00,VWS V14.00,2013-01-01 18:31:00,
2013-01-01 12:36:00,57.1,53.9,30.01,NE,51,8.0,8.0,89,0.00,,---,0.00,VWS V14.00,2013-01-01 18:36:00,
2013-01-01 12:41:00,56.9,53.7,30.02,NNE,24,8.0,18.0,89,0.00,,---,0.00,VWS V14.00,2013-01-01 18:41:00,
2013-01-01 12:46:00,56.9,53.7,30.02,North,5,4.0,6.0,89,0.00,,---,0.00,VWS V14.00,2013-01-01 18:46:00,
2013-01-01 12:51:00,57.1,53.9,30.02,NNE,26,10.0,10.0,89,0.00,,---,0.00,VWS V14.00,2013-01-01 18:51:00,
2013-01-01 12:56:00,57.4,54.2,30.02,NNE,22,0.0,0.0,89,0.00,,---,0.00,VWS V14.00,2013-01-01 18:56:00,
2013-01-01 13:01:00,57.6,54.4,30.02,NNE,17,0.0,5.0,89,0.00,,---,0.00,VWS V14.00,2013-01-01 19:01:00,
2013-01-01 13:06:00,57.7,54.8,30.02,North,350,0.0,0.0,90,0.00,,---,0.00,VWS V14.00,2013-01-01 19:06:00,
2013-01-01 13:11:00,57.7,54.5,30.03,North,355,0.0,0.0,89,0.00,,---,0.00,VWS V14.00,2013-01-01 19:11:00,
2013-01-01 13:16:00,57.7,54.5,30.02,NNW,348,1.0,3.0,89,0.00,,---,0.00,VWS V14.00,2013-01-01 19:16:00,
2013-01-01 13:21:00,57.7,54.5,30.03,North,5,4.0,4.0,89,0.00,,---,0.00,VWS V14.00,2013-01-01 19:21:00,
2013-01-01 13:26:00,57.8,54.6,30.03,North,360,0.0,4.0,89,0.00,,---,0.00,VWS V14.00,2013-01-01 19:26:00,
2013-01-01 13:31:00,57.7,54.2,30.02,NNE,19,0.0,4.0,88,0.00,,---,0.00,VWS V14.00,2013-01-01 19:31:00,
2013-01-01 13:36:00,57.8,54.3,30.01,NNE,25,1.0,13.0,88,0.00,,---,0.00,VWS V14.00,2013-01-01 19:36:00,
2013-01-01 13:41:00,58.0,54.5,30.01,NNE,22,0.0,0.0,88,0.00,,---,0.00,VWS V14.00,2013-01-01 19:41:00,
2013-01-01 13:46:00,58.2,54.7,30.00,NNE,19,3.0,7.0,88,0.00,,---,0.00,VWS V14.00,2013-01-01 19:46:00,
2013-01-01 13:51:00,58.5,55.0,30.01,NNE,22,2.0,10.0,88,0.00,,---,0.00,VWS V14.00,2013-01-01 19:51:00,
2013-01-01 13:56:00,59.0,55.1,30.01,NNE,23,2.0,12.0,87,0.00,,---,0.00,VWS V14.00,2013-01-01 19:56:00,
2013-01-01 14:01:00,59.4,55.5,30.00,North,5,0.0,5.0,87,0.00,,---,0.00,VWS V14.00,2013-01-01 20:01:00,
2013-01-01 14:06:00,59.1,54.9,30.01,NNE,13,3.0,5.0,86,0.00,,---,0.00,VWS V14.00,2013-01-01 20:06:00,
2013-01-01 14:11:00,58.7,54.2,30.01,NNE,16,3.0,3.0,85,0.00,,---,0.00,VWS V14.00,2013-01-01 20:11:00,
2013-01-01 14:16:00,58.4,53.9,30.01,NNE,25,3.0,11.0,85,0.00,,---,0.00,VWS V14.00,2013-01-01 20:16:00,
2013-01-01 14:21:00,58.0,53.2,30.01,NNE,13,7.0,13.0,84,0.00,,---,0.00,VWS V14.00,2013-01-01 20:21:00,
2013-01-01 14:26:00,57.9,53.1,30.01,NNE,31,6.0,9.0,84,0.00,,---,0.00,VWS V14.00,2013-01-01 20:26:00,
2013-01-01 14:31:00,58.0,53.2,30.02,NNE,20,9.0,13.0,84,0.00,,---,0.00,VWS V14.00,2013-01-01 20:31:00,
2013-01-01 14:36:00,58.1,53.0,30.02,NNE,19,0.0,4.0,83,0.00,,---,0.00,VWS V14.00,2013-01-01 20:36:00,
2013-01-01 14:41:00,58.3,53.2,30.01,NNE,26,12.0,12.0,83,0.00,,---,0.00,VWS V14.00,2013-01-01 20:41:00,
2013-01-01 14:46:00,58.0,52.5,30.02,NNE,24,3.0,12.0,82,0.00,,---,0.00,VWS V14.00,2013-01-01 20:46:00,
2013-01-01 14:51:00,57.9,52.5,30.02,NNE,25,0.0,11.0,82,0.00,,---,0.00,VWS V14.00,2013-01-01 20:51:00,
2013-01-01 14:56:00,57.9,52.5,30.02,NNE,29,0.0,7.0,82,0.00,,---,0.00,VWS V14.00,2013-01-01 20:56:00,
2013-01-01 15:01:00,57.8,52.0,30.03,NNE,25,14.0,22.0,81,0.00,,---,0.00,VWS V14.00,2013-01-01 21:01:00,
2013-01-01 15:06:00,57.7,51.9,30.03,NNE,18,12.0,12.0,81,0.00,,---,0.00,VWS V14.00,2013-01-01 21:06:00,
2013-01-01 15:11:00,57.8,52.0,30.03,NNE,28,13.0,13.0,81,0.00,,---,0.00,VWS V14.00,2013-01-01 21:11:00,
2013-01-01 15:16:00,58.0,51.9,30.03,North,355,10.0,13.0,80,0.00,,---,0.00,VWS V14.00,2013-01-01 21:16:00,
2013-01-01 15:21:00,58.0,51.9,30.03,NNE,19,0.0,7.0,80,0.00,,---,0.00,VWS V14.00,2013-01-01 21:21:00,
2013-01-01 15:26:00,57.7,51.2,30.03,NNE,26,11.0,14.0,79,0.00,,---,0.00,VWS V14.00,2013-01-01 21:26:00,
2013-01-01 15:31:00,57.9,51.8,30.03,NNE,17,9.0,10.0,80,0.00,,---,0.00,VWS V14.00,2013-01-01 21:31:00,
2013-01-01 15:36:00,58.0,51.9,30.03,North,11,2.0,12.0,80,0.00,,---,0.00,VWS V14.00,2013-01-01 21:36:00,
2013-01-01 15:41:00,58.2,52.1,30.04,North,11,1.0,8.0,80,0.00,,---,0.00,VWS V14.00,2013-01-01 21:41:00,
2013-01-01 15:46:00,58.3,51.8,30.03,NNE,23,0.0,7.0,79,0.00,,---,0.00,VWS V14.00,2013-01-01 21:46:00,
2013-01-01 15:51:00,58.4,51.9,30.03,North,11,2.0,7.0,79,0.00,,---,0.00,VWS V14.00,2013-01-01 21:51:00,
2013-01-01 15:56:00,58.4,51.9,30.02,North,355,12.0,15.0,79,0.00,,---,0.00,VWS V14.00,2013-01-01 21:56:00,
2013-01-01 16:01:00,58.3,51.8,30.03,NNE,17,3.0,9.0,79,0.00,,---,0.00,VWS V14.00,2013-01-01 22:01:00,
2013-01-01 16:06:00,58.2,51.7,30.03,North,5,5.0,9.0,79,0.00,,---,0.00,VWS V14.00,2013-01-01 22:06:00,
2013-01-01 16:11:00,57.9,51.1,30.04,NNE,26,7.0,14.0,78,0.00,,---,0.00,VWS V14.00,2013-01-01 22:11:00,
2013-01-01 16:16:00,57.9,51.4,30.04,NNE,30,4.0,5.0,79,0.00,,---,0.00,VWS V14.00,2013-01-01 22:16:00,
2013-01-01 16:21:00,57.8,51.3,30.04,NNE,26,0.0,4.0,79,0.00,,---,0.00,VWS V14.00,2013-01-01 22:21:00,
2013-01-01 16:26:00,57.7,51.2,30.03,NNE,20,4.0,6.0,79,0.00,,---,0.00,VWS V14.00,2013-01-01 22:26:00,
2013-01-01 16:31:00,57.5,51.0,30.04,NNE,32,5.0,7.0,79,0.00,,---,0.00,VWS V14.00,2013-01-01 22:31:00,
2013-01-01 16:36:00,57.4,51.0,30.05,NNE,26,1.0,5.0,79,0.00,,---,0.00,VWS V14.00,2013-01-01 22:36:00,
2013-01-01 16:41:00,57.3,50.8,30.05,North,5,3.0,9.0,79,0.00,,---,0.00,VWS V14.00,2013-01-01 22:41:00,
2013-01-01 16:46:00,57.3,50.8,30.05,North,355,1.0,10.0,79,0.00,,---,0.00,VWS V14.00,2013-01-01 22:46:00,
2013-01-01 16:51:00,57.3,50.8,30.05,NNE,13,7.0,8.0,79,0.00,,---,0.00,VWS V14.00,2013-01-01 22:51:00,
2013-01-01 16:56:00,57.2,51.1,30.05,NNE,19,0.0,3.0,80,0.00,,---,0.00,VWS V14.00,2013-01-01 22:56:00,
2013-01-01 17:01:00,57.1,51.0,30.04,NNE,26,7.0,11.0,80,0.00,,---,0.00,VWS V14.00,2013-01-01 23:01:00,
2013-01-01 17:06:00,57.0,50.9,30.05,NNE,13,4.0,8.0,80,0.00,,---,0.00,VWS V14.00,2013-01-01 23:06:00,
2013-01-01 17:11:00,56.9,50.8,30.05,NNE,19,0.0,5.0,80,0.00,,---,0.00,VWS V14.00,2013-01-01 23:11:00,
2013-01-01 17:16:00,56.8,50.7,30.05,NNE,21,4.0,8.0,80,0.00,,---,0.00,VWS V14.00,2013-01-01 23:16:00,
2013-01-01 17:21:00,56.7,50.9,30.04,NNE,25,7.0,9.0,81,0.00,,---,0.00,VWS V14.00,2013-01-01 23:21:00,
2013-01-01 17:26:00,56.5,50.8,30.05,NNE,28,13.0,14.0,81,0.00,,---,0.00,VWS V14.00,2013-01-01 23:26:00,
2013-01-01 17:31:00,56.4,50.7,30.04,NNE,22,7.0,11.0,81,0.00,,---,0.00,VWS V14.00,2013-01-01 23:31:00,
2013-01-01 17:36:00,56.4,50.7,30.05,NNE,22,7.0,7.0,81,0.00,,---,0.00,VWS V14.00,2013-01-01 23:36:00,
2013-01-01 17:41:00,56.4,50.7,30.06,NNE,13,0.0,0.0,81,0.00,,---,0.00,VWS V14.00,2013-01-01 23:41:00,
2013-01-01 17:46:00,56.3,50.5,30.05,NNE,12,0.0,0.0,81,0.00,,---,0.00,VWS V14.00,2013-01-01 23:46:00,
2013-01-01 17:51:00,56.2,50.8,30.05,NNE,15,0.0,0.0,82,0.00,,---,0.00,VWS V14.00,2013-01-01 23:51:00,
2013-01-01 17:56:00,56.1,50.7,30.06,NNE,12,0.0,0.0,82,0.00,,---,0.00,VWS V14.00,2013-01-01 23:56:00,
2013-01-01 18:01:00,56.0,50.6,30.06,NNE,13,0.0,0.0,82,0.00,,---,0.00,VWS V14.00,2013-01-02 00:01:00,
2013-01-01 18:06:00,55.9,50.5,30.05,North,11,0.0,3.0,82,0.00,,---,0.00,VWS V14.00,2013-01-02 00:06:00,
2013-01-01 18:11:00,55.8,50.4,30.06,NNE,12,2.0,2.0,82,0.00,,---,0.00,VWS V14.00,2013-01-02 00:11:00,
2013-01-01 18:16:00,55.7,50.3,30.06,NE,34,1.0,7.0,82,0.00,,---,0.00,VWS V14.00,2013-01-02 00:16:00,
2013-01-01 18:21:00,55.6,50.2,30.07,NNE,17,0.0,0.0,82,0.00,,---,0.00,VWS V14.00,2013-01-02 00:21:00,
2013-01-01 18:26:00,55.5,50.1,30.08,NNE,15,0.0,0.0,82,0.00,,---,0.00,VWS V14.00,2013-01-02 00:26:00,
2013-01-01 18:31:00,55.4,50.0,30.08,NNE,13,0.0,0.0,82,0.00,,---,0.00,VWS V14.00,2013-01-02 00:31:00,
2013-01-01 18:36:00,55.3,49.9,30.07,NNE,14,3.0,6.0,82,0.00,,---,0.00,VWS V14.00,2013-01-02 00:36:00,
2013-01-01 18:41:00,55.2,49.8,30.08,NNE,14,0.0,0.0,82,0.00,,---,0.00,VWS V14.00,2013-01-02 00:41:00,
2013-01-01 18:46:00,55.1,49.7,30.08,NNE,16,0.0,0.0,82,0.00,,---,0.00,VWS V14.00,2013-01-02 00:46:00,
2013-01-01 18:51:00,55.0,49.9,30.08,NNE,17,0.0,5.0,83,0.00,,---,0.00,VWS V14.00,2013-01-02 00:51:00,
2013-01-01 18:56:00,54.9,49.8,30.08,NNE,17,0.0,0.0,83,0.00,,---,0.00,VWS V14.00,2013-01-02 00:56:00,
2013-01-01 19:01:00,54.8,49.7,30.08,NNE,17,0.0,0.0,83,0.00,,---,0.00,VWS V14.00,2013-01-02 01:01:00,
2013-01-01 19:06:00,54.7,49.7,30.09,North,5,0.0,0.0,83,0.00,,---,0.00,VWS V14.00,2013-01-02 01:06:00,
2013-01-01 19:11:00,54.7,49.7,30.09,North,360,0.0,1.0,83,0.00,,---,0.00,VWS V14.00,2013-01-02 01:11:00,
2013-01-01 19:16:00,54.6,49.5,30.09,North,360,0.0,0.0,83,0.00,,---,0.00,VWS V14.00,2013-01-02 01:16:00,
2013-01-01 19:21:00,54.4,49.3,30.08,NNE,16,0.0,8.0,83,0.00,,---,0.00,VWS V14.00,2013-01-02 01:21:00,
2013-01-01 19:26:00,54.4,49.3,30.08,NNE,18,0.0,0.0,83,0.00,,---,0.00,VWS V14.00,2013-01-02 01:26:00,
2013-01-01 19:31:00,54.3,49.3,30.08,NNE,25,0.0,8.0,83,0.00,,---,0.00,VWS V14.00,2013-01-02 01:31:00,
2013-01-01 19:36:00,54.2,48.8,30.08,NNE,22,2.0,5.0,82,0.00,,---,0.00,VWS V14.00,2013-01-02 01:36:00,
2013-01-01 19:41:00,54.1,48.7,30.09,NNE,22,0.0,0.0,82,0.00,,---,0.00,VWS V14.00,2013-01-02 01:41:00,
2013-01-01 19:46:00,54.0,48.6,30.08,NNE,24,2.0,3.0,82,0.00,,---,0.00,VWS V14.00,2013-01-02 01:46:00,
2013-01-01 19:51:00,54.0,48.6,30.09,NNE,24,0.0,0.0,82,0.00,,---,0.00,VWS V14.00,2013-01-02 01:51:00,
2013-01-01 19:56:00,53.9,48.5,30.10,NNE,24,0.0,0.0,82,0.00,,---,0.00,VWS V14.00,2013-01-02 01:56:00,
2013-01-01 20:01:00,53.9,48.5,30.11,NNE,12,2.0,4.0,82,0.00,,---,0.00,VWS V14.00,2013-01-02 02:01:00,
2013-01-01 20:06:00,53.9,48.5,30.10,NNE,12,0.0,0.0,82,0.00,,---,0.00,VWS V14.00,2013-01-02 02:06:00,
2013-01-01 20:11:00,53.8,48.4,30.10,North,5,0.0,0.0,82,0.00,,---,0.00,VWS V14.00,2013-01-02 02:11:00,
2013-01-01 20:16:00,53.7,48.3,30.10,North,11,0.0,0.0,82,0.00,,---,0.00,VWS V14.00,2013-01-02 02:16:00,
2013-01-01 20:21:00,53.7,48.3,30.10,NNE,12,0.0,1.0,82,0.00,,---,0.00,VWS V14.00,2013-01-02 02:21:00,
2013-01-01 20:26:00,53.7,48.3,30.10,North,9,0.0,3.0,82,0.00,,---,0.00,VWS V14.00,2013-01-02 02:26:00,
2013-01-01 20:31:00,53.6,48.2,30.11,North,11,0.0,0.0,82,0.00,,---,0.00,VWS V14.00,2013-01-02 02:31:00,
2013-01-01 20:36:00,53.5,48.2,30.11,North,5,0.0,0.0,82,0.00,,---,0.00,VWS V14.00,2013-01-02 02:36:00,
2013-01-01 20:41:00,53.5,48.2,30.11,North,5,0.0,0.0,82,0.00,,---,0.00,VWS V14.00,2013-01-02 02:41:00,
2013-01-01 20:46:00,53.4,48.0,30.11,North,5,0.0,0.0,82,0.00,,---,0.00,VWS V14.00,2013-01-02 02:46:00,
2013-01-01 20:51:00,53.4,48.0,30.12,NNW,346,0.0,3.0,82,0.00,,---,0.00,VWS V14.00,2013-01-02 02:51:00,
2013-01-01 20:56:00,53.2,47.9,30.12,NNW,347,0.0,4.0,82,0.00,,---,0.00,VWS V14.00,2013-01-02 02:56:00,
2013-01-01 21:01:00,53.1,47.8,30.12,NNW,348,0.0,0.0,82,0.00,,---,0.00,VWS V14.00,2013-01-02 03:01:00,
2013-01-01 21:06:00,53.0,47.7,30.12,North,351,0.0,0.0,82,0.00,,---,0.00,VWS V14.00,2013-01-02 03:06:00,
2013-01-01 21:11:00,52.8,47.8,30.12,North,351,0.0,0.0,83,0.00,,---,0.00,VWS V14.00,2013-01-02 03:11:00,
2013-01-01 21:16:00,52.6,47.6,30.12,North,355,0.0,0.0,83,0.00,,---,0.00,VWS V14.00,2013-01-02 03:16:00,
2013-01-01 21:21:00,52.4,47.4,30.13,North,355,3.0,6.0,83,0.00,,---,0.00,VWS V14.00,2013-01-02 03:21:00,
2013-01-01 21:26:00,52.0,47.0,30.12,NNE,17,5.0,9.0,83,0.00,,---,0.00,VWS V14.00,2013-01-02 03:26:00,
2013-01-01 21:31:00,51.7,47.0,30.12,North,9,3.0,8.0,84,0.00,,---,0.00,VWS V14.00,2013-01-02 03:31:00,
2013-01-01 21:36:00,51.4,46.4,30.12,NNE,15,8.0,11.0,83,0.00,,---,0.00,VWS V14.00,2013-01-02 03:36:00,
2013-01-01 21:41:00,51.2,46.2,30.12,NNE,23,8.0,14.0,83,0.00,,---,0.00,VWS V14.00,2013-01-02 03:41:00,
2013-01-01 21:46:00,51.1,46.4,30.12,NNE,24,4.0,12.0,84,0.00,,---,0.00,VWS V14.00,2013-01-02 03:46:00,
2013-01-01 21:51:00,51.0,46.3,30.12,NNE,15,8.0,11.0,84,0.00,,---,0.00,VWS V14.00,2013-01-02 03:51:00,
2013-01-01 21:56:00,50.8,46.2,30.12,NNE,15,5.0,15.0,84,0.00,,---,0.00,VWS V14.00,2013-01-02 03:56:00,
2013-01-01 22:01:00,50.8,46.2,30.12,NNE,16,5.0,8.0,84,0.00,,---,0.00,VWS V14.00,2013-01-02 04:01:00,
2013-01-01 22:06:00,50.7,46.0,30.12,NNE,27,5.0,14.0,84,0.00,,---,0.00,VWS V14.00,2013-01-02 04:06:00,
2013-01-01 22:11:00,50.6,46.0,30.12,NNE,17,7.0,8.0,84,0.00,,---,0.00,VWS V14.00,2013-01-02 04:11:00,
2013-01-01 22:16:00,50.5,46.2,30.13,NNE,23,4.0,7.0,85,0.00,,---,0.00,VWS V14.00,2013-01-02 04:16:00,
2013-01-01 22:21:00,50.4,46.1,30.12,NNE,25,10.0,12.0,85,0.00,,---,0.00,VWS V14.00,2013-01-02 04:21:00,
2013-01-01 22:26:00,50.2,45.6,30.13,NNE,25,4.0,9.0,84,0.00,,---,0.00,VWS V14.00,2013-01-02 04:26:00,
2013-01-01 22:31:00,50.1,45.5,30.12,NNE,24,5.0,10.0,84,0.00,,---,0.00,VWS V14.00,2013-01-02 04:31:00,
2013-01-01 22:36:00,50.0,45.4,30.13,NNE,22,2.0,10.0,84,0.00,,---,0.00,VWS V14.00,2013-01-02 04:36:00,
2013-01-01 22:41:00,49.9,45.3,30.13,NNE,17,5.0,8.0,84,0.00,,---,0.00,VWS V14.00,2013-01-02 04:41:00,
2013-01-01 22:46:00,49.7,44.8,30.12,NNE,19,7.0,14.0,83,0.00,,---,0.00,VWS V14.00,2013-01-02 04:46:00,
2013-01-01 22:51:00,49.7,44.8,30.13,NE,34,9.0,12.0,83,0.00,,---,0.00,VWS V14.00,2013-01-02 04:51:00,
2013-01-01 22:56:00,49.7,44.8,30.13,NNE,19,4.0,4.0,83,0.00,,---,0.00,VWS V14.00,2013-01-02 04:56:00,
2013-01-01 23:00:00,49.7,44.8,30.14,North,360,2.0,3.0,83,0.00,,---,0.00,VWS V14.00,2013-01-02 05:00:00,
2013-01-01 23:01:00,49.7,44.8,30.14,North,360,0.0,5.0,83,0.00,,---,0.00,VWS V14.00,2013-01-02 05:01:00,
2013-01-01 23:03:00,49.7,44.8,30.13,North,9,3.0,3.0,83,0.00,,---,0.00,VWS V14.00,2013-01-02 05:03:00,
2013-01-01 23:08:00,49.6,44.7,30.12,NNE,21,2.0,8.0,83,0.00,,---,0.00,VWS V14.00,2013-01-02 05:08:00,
2013-01-01 23:13:00,49.6,44.7,30.11,NNE,22,3.0,5.0,83,0.00,,---,0.00,VWS V14.00,2013-01-02 05:13:00,
2013-01-01 23:18:00,49.5,44.6,30.11,NNE,31,7.0,9.0,83,0.00,,---,0.00,VWS V14.00,2013-01-02 05:18:00,
2013-01-01 23:23:00,49.5,44.6,30.12,NNE,19,3.0,7.0,83,0.00,,---,0.00,VWS V14.00,2013-01-02 05:23:00,
2013-01-01 23:28:00,49.5,44.2,30.12,NE,46,13.0,13.0,82,0.00,,---,0.00,VWS V14.00,2013-01-02 05:28:00,
2013-01-01 23:33:00,49.5,44.2,30.12,NNW,346,4.0,8.0,82,0.00,,---,0.00,VWS V14.00,2013-01-02 05:33:00,
2013-01-01 23:38:00,49.5,44.6,30.12,NNW,336,8.0,11.0,83,0.00,,---,0.00,VWS V14.00,2013-01-02 05:38:00,
2013-01-01 23:43:00,49.5,44.2,30.11,North,360,1.0,5.0,82,0.00,,---,0.00,VWS V14.00,2013-01-02 05:43:00,
2013-01-01 23:48:00,49.4,44.1,30.11,NNE,21,5.0,13.0,82,0.01,,---,0.01,VWS V14.00,2013-01-02 05:48:00,
2013-01-01 23:53:00,49.3,44.0,30.11,NNE,22,9.0,13.0,82,0.01,,---,0.01,VWS V14.00,2013-01-02 05:53:00,
2013-01-01 23:58:00,49.3,44.0,30.11,NNE,26,10.0,10.0,82,0.01,,---,0.00,VWS V14.00,2013-01-02 05:58:00,